FW4559 Weather Reports


time (UTC)temp
C
wind
direction
speed
KPH
gust
KPH
rain 1hr
cm
rain 24hr
cm
rain mn
cm
humidity
%
barometer
mb
20260510082527 7 360 0.0 1.6 0.00 0.00 0.00 94 1013.5
20260510082031 7 96 0.0 1.6 0.00 0.00 0.00 94 1013.5
20260510081536 7 96 0.0 1.6 0.00 0.00 0.00 94 1013.4
20260510081027 7 96 0.0 1.6 0.00 0.00 0.00 93 1013.4
20260510080527 7 96 0.0 3.2 0.00 0.00 0.00 92 1013.4
20260510080030 8 96 0.0 3.2 0.00 0.00 0.00 91 1013.4
20260510075526 8 112 0.0 4.8 0.00 0.00 0.00 91 1013.2
20260510075024 8 345 0.0 9.7 0.00 0.00 0.00 91 1013.2
20260510074524 8 340 3.2 9.7 0.00 0.00 0.00 93 1013.1
20260510074023 8 11 3.2 8.0 0.00 0.00 0.00 93 1013.0
20260510073523 8 329 4.8 8.0 0.00 0.00 0.00 94 1013.0
20260510073023 8 339 3.2 6.4 0.00 0.00 0.00 95 1013.0
20260510072522 7 343 3.2 4.8 0.00 0.00 0.00 93 1013.0
20260510072021 8 329 0.0 3.2 0.00 0.00 0.00 93 1013.1
20260510071520 8 112 0.0 1.6 0.00 0.00 0.00 93 1013.1
20260510071019 8 112 0.0 1.6 0.00 0.00 0.00 93 1013.2
20260510070519 8 111 0.0 1.6 0.00 0.00 0.00 93 1013.0
20260510070021 8 112 0.0 1.6 0.00 0.00 0.00 93 1013.1
20260510065518 8 111 0.0 0.0 0.00 0.00 0.00 92 1013.2
20260510065018 8 111 0.0 0.0 0.00 0.00 0.00 92 1013.1
20260510064520 8 112 0.0 1.6 0.00 0.00 0.00 93 1013.1
20260510064018 8 112 0.0 1.6 0.00 0.00 0.00 93 1013.1
20260510063517 8 113 0.0 3.2 0.00 0.00 0.00 93 1013.1
20260510063020 8 83 1.6 3.2 0.00 0.00 0.00 92 1013.2
20260510062516 8 127 1.6 3.2 0.00 0.00 0.00 91 1013.2
20260510062021 8 354 0.0 1.6 0.00 0.00 0.00 90 1013.2
20260510061523 8 354 0.0 3.2 0.00 0.00 0.00 91 1013.2
20260510061017 8 354 1.6 3.2 0.00 0.00 0.00 91 1013.2
20260510060520 9 355 0.0 1.6 0.00 0.00 0.00 88 1013.4
20260510060015 9 355 0.0 3.2 0.00 0.00 0.00 88 1013.4
20260510055515 10 355 0.0 3.2 0.00 0.00 0.00 89 1013.4
20260510055012 10 355 1.6 3.2 0.00 0.00 0.00 91 1013.5
20260510054512 9 1 1.6 3.2 0.00 0.00 0.00 91 1013.5
20260510054012 8 356 1.6 3.2 0.00 0.00 0.00 92 1013.4
20260510053510 8 352 0.0 3.2 0.00 0.00 0.00 92 1013.4
20260510053010 8 352 0.0 0.0 0.00 0.00 0.00 91 1013.3
20260510052509 8 352 0.0 1.6 0.00 0.00 0.00 91 1013.4
20260510052008 8 352 0.0 1.6 0.00 0.00 0.00 90 1013.3
20260510051516 8 352 0.0 1.6 0.00 0.00 0.00 90 1013.3
20260510051007 8 352 0.0 1.6 0.00 0.00 0.00 90 1013.3
20260510050607 8 352 0.0 4.8 0.00 0.00 0.00 90 1013.3
20260510050005 8 343 1.6 4.8 0.00 0.00 0.00 90 1013.4
20260510045508 8 212 0.0 1.6 0.00 0.00 0.00 90 1013.3
20260510045005 8 212 0.0 1.6 0.00 0.00 0.00 90 1013.2
20260510044509 8 212 0.0 0.0 0.00 0.00 0.00 90 1013.2
20260510044005 8 212 0.0 0.0 0.00 0.00 0.00 90 1013.3
20260510043503 8 212 0.0 1.6 0.00 0.00 0.00 89 1013.2
20260510043006 9 212 0.0 1.6 0.00 0.00 0.00 89 1013.2
20260510042501 9 212 0.0 1.6 0.00 0.00 0.00 89 1013.2
20260510042002 9 212 0.0 1.6 0.00 0.00 0.00 88 1013.3
20260510041637 9 212 0.0 1.6 0.00 0.00 0.00 88 1013.2
20260510041102 9 212 0.0 1.6 0.00 0.00 0.00 87 1013.1
20260510040558 9 116 0.0 1.6 0.00 0.00 0.00 87 1013.1
20260510040058 10 116 0.0 1.6 0.00 0.00 0.00 86 1013.1
20260510035557 10 116 0.0 1.6 0.00 0.00 0.00 86 1013.2
20260510035058 10 116 0.0 1.6 0.00 0.00 0.00 85 1013.1
20260510034559 10 116 0.0 1.6 0.00 0.00 0.00 85 1013.2
20260510034059 10 116 0.0 1.6 0.00 0.00 0.00 84 1013.2
20260510033556 10 116 0.0 1.6 0.00 0.00 0.00 83 1013.3
20260510033116 10 116 0.0 1.6 0.00 0.00 0.00 83 1013.2
20260510032556 10 116 0.0 3.2 0.00 0.00 0.00 84 1013.2
20260510032056 10 96 0.0 1.6 0.00 0.00 0.00 83 1013.1
20260510031557 10 96 0.0 3.2 0.00 0.00 0.00 83 1013.2
20260510031055 10 96 1.6 3.2 0.00 0.00 0.00 83 1013.2
20260510030558 11 158 0.0 1.6 0.00 0.00 0.00 81 1013.2
20260510030056 11 96 0.0 3.2 0.00 0.00 0.00 82 1013.1
20260510025556 10 96 0.0 1.6 0.00 0.00 0.00 83 1013.2
20260510025057 11 110 0.0 3.2 0.00 0.00 0.00 82 1013.2
20260510024609 11 117 0.0 3.2 0.00 0.00 0.00 82 1013.2
20260510024054 11 127 0.0 1.6 0.00 0.00 0.00 82 1013.0
20260510023554 11 127 0.0 0.0 0.00 0.00 0.00 81 1013.0
20260510023059 11 127 0.0 1.6 0.00 0.00 0.00 80 1013.0
20260510022554 11 127 0.0 1.6 0.00 0.00 0.00 79 1013.0
20260510022053 11 127 0.0 1.6 0.00 0.00 0.00 79 1012.9
20260510021554 11 127 0.0 1.6 0.00 0.00 0.00 79 1012.8
20260510021053 12 120 0.0 1.6 0.00 0.00 0.00 77 1012.8
20260510020554 12 120 0.0 1.6 0.00 0.00 0.00 76 1012.7
20260510020054 12 120 0.0 1.6 0.00 0.00 0.00 75 1012.6
20260510015555 12 120 0.0 1.6 0.00 0.00 0.00 74 1012.6
20260510015055 13 107 0.0 1.6 0.00 0.00 0.00 73 1012.5
20260510014612 13 107 0.0 0.0 0.00 0.00 0.00 71 1012.3
20260510014052 13 107 0.0 1.6 0.00 0.00 0.00 71 1012.3
20260510013552 13 107 0.0 3.2 0.00 0.00 0.00 70 1012.2
20260510013102 13 107 0.0 3.2 0.00 0.00 0.00 70 1012.2
20260510012555 13 115 0.0 3.2 0.00 0.00 0.00 70 1012.0
20260510012051 13 120 1.6 3.2 0.00 0.00 0.00 70 1011.9
20260510011551 13 113 0.0 1.6 0.00 0.00 0.00 70 1012.0
20260510011050 13 113 0.0 3.2 0.00 0.00 0.00 70 1012.0
20260510010550 14 113 0.0 3.2 0.00 0.00 0.00 69 1011.9
20260510010051 14 98 0.0 4.8 0.00 0.00 0.00 69 1011.7
20260510005551 14 110 1.6 4.8 0.00 0.00 0.00 69 1011.5
20260510005049 14 135 1.6 4.8 0.00 0.00 0.00 68 1011.5
20260510004553 15 129 0.0 1.6 0.00 0.00 0.00 67 1011.4
20260510004049 15 311 0.0 1.6 0.00 0.00 0.00 65 1011.2
20260510003549 15 311 0.0 1.6 0.00 0.00 0.00 64 1011.1
20260510003049 15 338 0.0 3.2 0.00 0.00 0.00 62 1011.0
20260510002548 16 338 0.0 3.2 0.00 0.00 0.00 62 1010.9
20260510002049 16 292 1.6 3.2 0.00 0.00 0.00 61 1010.8
20260510001549 16 300 1.6 3.2 0.00 0.00 0.00 60 1010.8
20260510001050 16 342 0.0 4.8 0.00 0.00 0.00 60 1010.8
20260510000551 16 342 0.0 6.4 0.00 0.00 0.00 60 1010.7
20260510000049 16 1 0.0 8.0 0.00 0.00 0.00 60 1010.8
20260509235549 16 334 3.2 8.0 0.00 0.00 0.00 59 1010.7
20260509235050 16 337 1.6 9.7 0.00 0.00 0.00 59 1010.8
20260509234547 17 332 3.2 14.5 0.00 0.00 0.00 58 1010.9
20260509234048 17 4 4.8 14.5 0.00 0.00 0.00 57 1010.8
20260509233548 17 334 4.8 16.1 0.00 0.00 0.00 56 1010.8
20260509233051 17 318 4.8 16.1 0.00 0.00 0.00 56 1010.6
20260509232547 17 356 3.2 11.3 0.00 0.00 0.00 56 1010.5
20260509232048 17 298 3.2 11.3 0.00 0.00 0.00 55 1010.6
20260509231557 17 346 4.8 9.7 0.00 0.00 0.00 55 1010.6
20260509231046 18 352 3.2 14.5 0.00 0.00 0.00 54 1010.7
20260509230550 18 336 4.8 14.5 0.00 0.00 0.00 54 1010.5
20260509230046 18 229 3.2 12.9 0.00 0.00 0.00 53 1010.5
20260509225545 18 339 4.8 12.9 0.00 0.00 0.00 52 1010.4
20260509225045 18 322 1.6 11.3 0.00 0.00 0.00 52 1010.4
20260509224545 18 315 6.4 11.3 0.00 0.00 0.00 50 1010.5
20260509224045 18 300 1.6 17.7 0.00 0.00 0.00 50 1010.4
20260509223545 18 342 4.8 17.7 0.00 0.00 0.00 49 1010.4
20260509223050 18 21 8.0 17.7 0.00 0.00 0.00 48 1010.2
20260509222549 19 329 9.7 17.7 0.00 0.00 0.00 47 1010.0
20260509222044 19 274 1.6 17.7 0.00 0.00 0.00 47 1010.1
20260509221546 19 261 3.2 16.1 0.00 0.00 0.00 46 1010.1
20260509221043 19 230 3.2 16.1 0.00 0.00 0.00 46 1010.1
20260509220543 19 132 8.0 17.7 0.00 0.00 0.00 46 1010.1
20260509220045 19 311 8.0 20.9 0.00 0.00 0.00 48 1010.0
20260509215547 19 82 8.0 27.4 0.00 0.00 0.00 49 1009.9
20260509215041 19 13 9.7 27.4 0.00 0.00 0.00 48 1009.8
20260509214542 20 41 6.4 16.1 0.00 0.00 0.00 47 1010.1
20260509214043 20 350 8.0 19.3 0.00 0.00 0.00 47 1010.0
20260509213541 20 280 8.0 19.3 0.00 0.00 0.00 48 1010.1
20260509213045 20 215 6.4 17.7 0.00 0.00 0.00 47 1010.1
20260509212540 20 284 6.4 17.7 0.00 0.00 0.00 46 1010.0
20260509212040 20 170 4.8 17.7 0.00 0.00 0.00 47 1009.8
20260509211541 20 129 4.8 17.7 0.00 0.00 0.00 47 1009.7
20260509211040 20 339 8.0 17.7 0.00 0.00 0.00 46 1009.6
20260509210540 20 144 4.8 16.1 0.00 0.00 0.00 45 1009.6
20260509210051 20 216 3.2 17.7 0.00 0.00 0.00 47 1009.7
20260509205539 20 325 8.0 19.3 0.00 0.00 0.00 45 1009.6
20260509205039 20 183 4.8 25.7 0.00 0.00 0.00 45 1009.6
20260509204538 20 135 1.6 17.7 0.00 0.00 0.00 44 1009.5
20260509204039 20 187 3.2 16.1 0.00 0.00 0.00 44 1009.6
20260509203539 20 157 3.2 19.3 0.00 0.00 0.00 46 1009.4
20260509203038 20 218 8.0 19.3 0.00 0.00 0.00 45 1009.3
20260509202540 20 215 4.8 20.9 0.00 0.00 0.00 46 1009.4
20260509202038 20 350 9.7 24.1 0.00 0.00 0.00 45 1009.5
20260509201536 20 297 6.4 24.1 0.00 0.00 0.00 46 1009.4
20260509201035 20 320 4.8 19.3 0.00 0.00 0.00 47 1009.4
20260509200534 20 243 4.8 16.1 0.00 0.00 0.00 58 1009.4
20260509200040 20 127 4.8 12.9 0.00 0.00 0.00 61 1009.3
20260509195538 19 91 1.6 6.4 0.00 0.00 0.00 60 1009.4
20260509195033 20 148 0.0 6.4 0.00 0.00 0.00 60 1009.6
20260509194534 20 183 0.0 3.2 0.00 0.00 0.00 61 1009.5
20260509194035 19 131 0.0 11.3 0.00 0.00 0.00 63 1009.4
20260509193533 18 337 1.6 14.5 0.00 0.00 0.00 64 1009.4
20260509193032 18 103 1.6 9.7 0.00 0.00 0.00 64 1009.4
20260509192531 18 153 1.6 9.7 0.00 0.00 0.00 63 1009.6
20260509192031 18 117 3.2 9.7 0.00 0.00 0.00 63 1009.5
20260509191532 18 138 1.6 9.7 0.00 0.00 0.00 62 1009.6
20260509191035 19 137 3.2 11.3 0.00 0.00 0.00 60 1009.4
20260509190531 19 157 0.0 4.8 0.00 0.00 0.00 61 1009.6
20260509190039 19 62 0.0 4.8 0.00 0.00 0.00 60 1009.6
20260509185534 19 203 0.0 11.3 0.00 0.00 0.00 61 1009.5
20260509185031 19 85 3.2 11.3 0.00 0.00 0.00 59 1009.3
20260509184535 20 168 3.2 8.0 0.00 0.00 0.00 57 1009.4
20260509184029 20 210 0.0 3.2 0.00 0.00 0.00 61 1009.3
20260509183529 19 110 0.0 12.9 0.00 0.00 0.00 61 1009.4
20260509183129 18 145 4.8 12.9 0.00 0.00 0.00 60 1009.3
20260509182529 18 117 3.2 11.3 0.00 0.00 0.00 61 1009.3
20260509182028 18 15 1.6 8.0 0.00 0.00 0.00 61 1009.6
20260509181528 19 57 3.2 8.0 0.00 0.00 0.00 60 1009.5
20260509181028 19 105 1.6 12.9 0.00 0.00 0.00 58 1009.7
20260509180528 20 153 3.2 16.1 0.00 0.00 0.00 57 1009.8
20260509180027 21 111 6.4 16.1 0.00 0.00 0.00 53 1009.7
20260509175525 21 130 1.6 14.5 0.00 0.00 0.00 55 1009.7
20260509175024 21 181 1.6 8.0 0.00 0.00 0.00 55 1009.9
20260509174523 20 113 1.6 11.3 0.00 0.00 0.00 56 1010.1
20260509174022 20 179 4.8 12.9 0.00 0.00 0.00 57 1010.2
20260509173520 19 181 3.2 16.1 0.00 0.00 0.00 59 1010.1
20260509173050 19 162 8.0 16.1 0.00 0.00 0.00 59 1010.0
20260509172519 18 140 4.8 12.9 0.00 0.00 0.00 62 1010.0
20260509172017 18 136 4.8 14.5 0.00 0.00 0.00 62 1010.1
20260509171524 18 158 4.8 14.5 0.00 0.00 0.00 63 1010.2
20260509171014 17 116 4.8 12.9 0.00 0.00 0.00 64 1010.2
20260509170513 17 160 6.4 14.5 0.00 0.00 0.00 65 1010.4
20260509170015 17 207 6.4 14.5 0.00 0.00 0.00 68 1010.4
20260509165512 17 189 6.4 14.5 0.00 0.00 0.00 66 1010.4
20260509165010 17 141 4.8 12.9 0.00 0.00 0.00 66 1010.5
20260509164514 17 212 6.4 12.9 0.00 0.00 0.00 66 1010.6
20260509164012 17 131 4.8 12.9 0.00 0.00 0.00 66 1010.6
20260509163510 17 105 4.8 12.9 0.00 0.00 0.00 65 1010.8
20260509163016 17 206 4.8 14.5 0.00 0.00 0.00 66 1010.7
20260509162509 17 156 4.8 17.7 0.00 0.00 0.00 65 1010.8
20260509162009 17 156 6.4 11.3 0.00 0.00 0.00 64 1010.8
20260509161508 17 147 4.8 16.1 0.00 0.00 0.00 66 1010.9
20260509161010 17 194 6.4 17.7 0.00 0.00 0.00 67 1010.9
20260509160507 17 162 8.0 19.3 0.00 0.00 0.00 66 1011.0
20260509160014 17 86 8.0 19.3 0.00 0.00 0.00 67 1010.9
20260509155506 17 139 4.8 12.9 0.00 0.00 0.00 66 1011.0
20260509155008 17 181 4.8 12.9 0.00 0.00 0.00 65 1010.9
20260509154505 17 191 4.8 11.3 0.00 0.00 0.00 66 1010.9
20260509154005 17 155 4.8 11.3 0.00 0.00 0.00 66 1010.8
20260509153503 17 147 4.8 11.3 0.00 0.00 0.00 67 1010.9
20260509153005 16 127 1.6 9.7 0.00 0.00 0.00 67 1010.8
20260509152502 16 169 4.8 8.0 0.00 0.00 0.00 68 1010.8
20260509152102 16 185 3.2 12.9 0.00 0.00 0.00 69 1010.8
20260509151625 16 145 4.8 12.9 0.00 0.00 0.00 70 1010.8
20260509151058 15 221 1.6 8.0 0.00 0.00 0.00 72 1010.7
20260509150557 15 95 3.2 9.7 0.00 0.00 0.00 71 1010.6
20260509150057 15 130 4.8 12.9 0.00 0.00 0.00 72 1010.6
20260509145556 15 161 6.4 12.9 0.00 0.00 0.00 72 1010.7
20260509145057 15 158 4.8 9.7 0.00 0.00 0.00 72 1010.8
20260509144555 15 165 3.2 9.7 0.00 0.00 0.00 72 1010.9
20260509144055 15 169 1.6 9.7 0.00 0.00 0.00 73 1010.8
20260509143553 15 153 3.2 8.0 0.00 0.00 0.00 73 1010.7
20260509143103 15 155 1.6 11.3 0.00 0.00 0.00 73 1010.8
20260509142553 15 160 3.2 11.3 0.00 0.00 0.00 72 1010.6
20260509142054 15 190 4.8 8.0 0.00 0.00 0.00 72 1010.7
20260509141553 15 130 1.6 8.0 0.00 0.00 0.00 73 1010.8
20260509141052 14 202 0.0 6.4 0.00 0.00 0.00 75 1010.9
20260509140548 14 215 1.6 9.7 0.00 0.00 0.00 76 1011.0
20260509140048 13 144 3.2 12.9 0.00 0.00 0.00 77 1011.2
20260509135552 13 172 4.8 12.9 0.00 0.00 0.00 76 1010.9
20260509135050 13 137 4.8 9.7 0.00 0.00 0.00 76 1010.8
20260509134547 13 153 3.2 9.7 0.00 0.00 0.00 78 1010.8
20260509134047 13 139 3.2 14.5 0.00 0.00 0.00 78 1010.7
20260509133546 13 215 8.0 14.5 0.00 0.00 0.00 77 1010.7
20260509133046 13 166 6.4 11.3 0.00 0.00 0.00 76 1010.7
20260509132544 13 143 4.8 9.7 0.00 0.00 0.00 75 1010.8
20260509132043 13 149 3.2 9.7 0.00 0.00 0.00 76 1010.8
20260509131556 13 210 4.8 9.7 0.00 0.00 0.00 75 1010.8
20260509131042 13 147 3.2 8.0 0.00 0.00 0.00 75 1010.8
20260509130542 13 159 3.2 8.0 0.00 0.00 0.00 76 1011.0
20260509125538 12 203 0.0 3.2 0.00 0.00 0.00 81 1011.5
20260509125038 12 146 1.6 3.2 0.00 0.00 0.00 81 1011.3
20260509124541 12 162 0.0 1.6 0.00 0.00 0.00 83 1011.5
20260509124035 11 10 0.0 1.6 0.00 0.00 0.00 87 1011.7
20260509123534 10 10 0.0 1.6 0.00 0.00 0.00 89 1011.8
20260509123100 10 10 0.0 1.6 0.00 0.00 0.00 90 1011.9
20260509122533 9 10 0.0 1.6 0.00 0.00 0.00 92 1012.0
20260509122033 8 10 0.0 1.6 0.00 0.00 0.00 93 1012.0
20260509121538 8 10 0.0 1.6 0.00 0.00 0.00 95 1011.8
20260509121035 8 10 0.0 3.2 0.00 0.00 0.00 95 1012.0
20260509120535 7 11 0.0 3.2 0.00 0.00 0.00 95 1012.1
20260509120043 7 360 0.0 3.2 0.00 0.00 0.00 95 1011.9
20260509115533 6 1 0.0 3.2 0.00 0.00 0.00 95 1012.1
20260509115033 6 1 1.6 3.2 0.00 0.00 0.00 95 1012.1
20260509114537 6 137 0.0 0.0 0.00 0.00 0.00 95 1012.0
20260509114032 6 137 0.0 1.6 0.00 0.00 0.00 95 1012.0
20260509113532 6 137 0.0 1.6 0.00 0.00 0.00 95 1011.7
20260509113032 6 96 0.0 1.6 0.00 0.00 0.00 95 1011.7
20260509112532 6 96 0.0 3.2 0.00 0.00 0.00 95 1011.7
20260509112032 6 94 0.0 3.2 0.00 0.00 0.00 95 1011.7
20260509111532 6 7 0.0 1.6 0.00 0.00 0.00 95 1011.6
20260509111032 6 7 0.0 1.6 0.00 0.00 0.00 95 1011.7
20260509110531 6 8 0.0 1.6 0.00 0.00 0.00 95 1011.7
20260509110031 6 7 0.0 1.6 0.00 0.00 0.00 95 1011.6
20260509105530 5 7 0.0 1.6 0.00 0.00 0.00 94 1011.5
20260509105029 6 7 0.0 3.2 0.00 0.00 0.00 94 1011.5
20260509104529 6 7 0.0 3.2 0.00 0.00 0.00 95 1011.3
20260509104028 6 99 0.0 1.6 0.00 0.00 0.00 95 1011.4
20260509103528 6 99 0.0 0.0 0.00 0.00 0.00 95 1011.3
20260509103028 6 99 0.0 1.6 0.00 0.00 0.00 95 1011.3
20260509102528 6 99 0.0 1.6 0.00 0.00 0.00 95 1011.2
20260509102028 6 99 0.0 1.6 0.00 0.00 0.00 95 1011.3
20260509101535 6 99 0.0 1.6 0.00 0.00 0.00 94 1011.2
20260509101028 6 99 0.0 1.6 0.00 0.00 0.00 94 1011.2
20260509100526 6 99 0.0 1.6 0.00 0.00 0.00 94 1011.1
20260509100026 6 98 0.0 1.6 0.00 0.00 0.00 93 1011.1
20260509095525 6 99 0.0 1.6 0.00 0.00 0.00 93 1011.0
20260509095023 6 99 0.0 1.6 0.00 0.00 0.00 93 1011.1
20260509094530 7 99 0.0 1.6 0.00 0.00 0.00 92 1011.0
20260509094020 7 98 0.0 1.6 0.00 0.00 0.00 94 1011.0
20260509093520 7 11 0.0 1.6 0.00 0.00 0.00 93 1011.0
20260509093020 7 11 0.0 1.6 0.00 0.00 0.00 93 1011.0
20260509092518 7 11 0.0 1.6 0.00 0.00 0.00 93 1011.0
20260509092018 7 11 0.0 1.6 0.00 0.00 0.00 93 1011.1
20260509091517 7 347 1.6 1.6 0.00 0.00 0.00 92 1011.2
20260509091016 7 347 0.0 1.6 0.00 0.00 0.00 93 1011.3
20260509090518 7 347 0.0 3.2 0.00 0.00 0.00 92 1011.3
20260509090016 7 347 0.0 3.2 0.00 0.00 0.00 92 1011.3
20260509085514 7 347 1.6 3.2 0.00 0.00 0.00 92 1011.3
20260509085013 7 98 0.0 1.6 0.00 0.00 0.00 91 1011.2
20260509084512 8 98 0.0 1.6 0.00 0.00 0.00 91 1011.3
20260509084014 8 98 0.0 3.2 0.00 0.00 0.00 90 1011.4
20260509083510 8 122 0.0 3.2 0.00 0.00 0.00 91 1011.2
20260509083009 8 143 0.0 0.0 0.00 0.00 0.00 90 1011.3